Regional Weather Roundup
Issued by NWS Jackson, KY

Home | Current Version | Previous Version | Graphics & Text | Print | Product List | Glossary On
Versions: 1 2 3 4 5 6 7 8 9 10 11 12 13 14 15 16 17 18 19 20 21 22 23 24 25 26 27 28 29 30 31 32 33 34 35 36 37 38 39 40 41 42 43 44 45 46 47 48 49 50
000
ASUS43 KJKL 082110
RWRJKL

EAST KENTUCKY HOURLY WEATHER ROUNDUP
NATIONAL WEATHER SERVICE JACKSON KY
400 PM EST MON FEB 08 2016

NOTE: "FAIR" INDICATES FEW OR NO CLOUDS BELOW 12,000 FEET WITH
NO SIGNIFICANT WEATHER AND/OR OBSTRUCTIONS TO VISIBILITY.

* THESE REPORTS ARE NOT UNDER NWS QUALITY CONTROL AND MAY NOT
  REPORT WEATHER SUCH AS PRECIPITATION AND FOG.

KYZ079-080-083-085-087-088-110-112-115-119-120-082200
...EASTERN KENTUCKY...

CITY           SKY/WX    TMP DP  RH WIND       PRES   REMARKS
JACKSON        CLOUDY    36  29  75 VRB7      29.66S WCI  30
LONDON         CLOUDY    38  27  64 W13       29.69R WCI  30
SOMERSET*      LGT SNOW  32  30  93 W16G29    29.75R WCI  21
MONTICELLO*    LGT RAIN  37  30  75 W22G28    29.74R WCI  26
WILLIAMSBURG*  MOCLDY    39  28  65 W9G17     29.70S WCI  33
MIDDLESBORO*   CLOUDY    38  31  78 W9        29.71R WCI  31
HARLAN APT*    CLOUDY    34  32  93 CALM      29.69R
HAZARD APT*    CLOUDY   N/A N/A N/A W9        29.68R
BLACK MTN*       N/A     27  27 100 W2          N/A
BIG SANDY*     CLOUDY    35  34  96 W3        29.66R
MOREHEAD APT*  CLOUDY    36  32  87 SW10      29.67S WCI  28
$$

KYZ035-036-041-042-044-050-067-078-099-082200
...CENTRAL KENTUCKY...

CITY           SKY/WX    TMP DP  RH WIND       PRES   REMARKS
MT STERLING*   CLOUDY    37  32  81 W12G18    29.67S WCI  30
DANVILLE*      LGT SNOW  32  32 100 W9G16     29.71R WCI  24
RICHMOND*      CLOUDY    37  30  75 W10       29.67R WCI  30
LEXINGTON      CLOUDY    37  31  78 NW10      29.66R WCI  30
FRANKFORT      CLOUDY    36  29  75 W12G18    29.67R WCI  28
$$

KYZ091>093-OHZ055-061-077-WVZ005-015-034-035-042-082200
...SOUTHERN OHIO/WEST VIRGINIA...

CITY           SKY/WX    TMP DP  RH WIND       PRES   REMARKS
COVINGTON      CLOUDY    36  33  89 SW7       29.64R WCI  30
COLUMBUS       LGT SNOW  34  34 100 CALM      29.60R FOG
DAYTON         CLOUDY    38  30  73 W10       29.61R WCI  31
WILMINGTON     CLOUDY    38  32  79 W7        29.60S WCI  33
HUNTINGTON     CLOUDY    37  33  85 SW7       29.64R WCI  32
CHARLESTON     PTSUNNY   44  26  49 W8G16     29.59R
PINEVILLE*     CLOUDY    45  18  34 MISG      29.62R
BECKLEY        PTSUNNY   39  22  50 CALM      29.55F
$$

VAZ002-007-008-TNZ017-027-036-066-071-082200
...SOUTHWEST VIRGINIA/EAST TENNESSEE...

CITY           SKY/WX    TMP DP  RH WIND       PRES   REMARKS
BRISTOL        SNOW      36  31  82 W10       29.67R VSB 1/2 WCI  28
KNOXVILLE      CLOUDY    44  22  41 W18G28    29.70R
OAK RIDGE      CLOUDY    42  28  57 W7        29.73R
CROSSVILLE     CLOUDY    37  22  54 W13       29.72R WCI  29
NASHVILLE      LGT SNOW  36  28  75 W13G22    29.81R WCI  27
$$

...KEY TO REMARKS...
VSB - VISIBILITY IN MILES
WCI - WIND CHILL INDEX
HX  - HEAT INDEX

$$



USA.gov is the U.S. government's official web portal to all federal, state and local government web resources and services.